Location: Blackwall
(51.5097°N, 0.0016°W)
Time: 03:14:32
(UTC+00:00)

Cosmos 1766 - Pass Details

Date: 15 May 2026
Orbit: 397 x 405 km, 82.5° (Epoch: 8 June)

Event Time Altitude Azimuth Distance (km) Brightness Sun altitude
Rises 21:50:44 0° 354° (N) 2,367 7.8 -14.3°
Reaches altitude 10° 21:52:50 10° 2° (N) 1,498 6.5 -14.5°
Maximum altitude 21:55:57 42° 75° (ENE) 610 3.4 -14.7°
Enters shadow 21:57:03 30° 123° (ESE) 777 3.6 -14.8°
